{"data":{"norad_id":61896,"epoch":"2026-05-25T04:35:14.032896Z","epoch_age_seconds":48623,"freshness":"FRESH","line1":"1 61896U 24205C   26145.19113464  .00009025  00000+0  51169-3 0  9990","line2":"2 61896  97.4130 216.6927 0053196  82.6344 278.0928 15.11976873 84758","mean_motion":15.11976873,"eccentricity":0.0053196,"inclination_deg":97.413,"raan_deg":216.6927,"arg_perigee_deg":82.6344,"mean_anomaly_deg":278.0928,"bstar":0.00051169,"rev_number":8475,"period_min":95.239551987512,"perigee_km":493.42236444421,"apogee_km":566.92124347128,"semimajor_km":6908.3088039577,"source":"CELESTRAK","updated_at":"2026-05-25T13:38:02.602195Z"}}